Theta_e
318 318 318 319 319 321 322 329 330 329 328 326 326 324 323 323 323 323 322 322 322 321
319 318 317 320 321 323 326 329 329 328 326 325 325 324 323 323 322 323 322 322 323 323
318 319 319 323 323 325 328 329 329 328 326 325 324 324 322 322 323 323 323 323 322 320
317 317 318 320 323 324 325 327 327 327 326 325 324 323 322 322 322 322 322 322 322 320
318 318 318 318 322 324 324 325 325 326 325 324 324 324 323 322 322 322 321 321 321 319
319 319 319 319 322 324 324 324 325 325 323 323 323 323 323 323 323 322 322 322 320 317
316 317 320 320 321 324 324 323 323 324 323 323 323 323 323 322 322 321 320 320 320 318
315 316 317 321 322 323 323 323 323 322 322 323 323 323 322 321 321 321 319 318 320 317
312 313 314 314 315 321 322 321 321 320 320 320 320 313 314 319 320 319 319 317 317 314
307 307 309 311 312 312 313 317 317 317 318 319 316 312 313 313 320 319 318 317 315 310
304 304 305 304 304 306 307 308 309 310 310 311 309 309 311 311 319 316 316 315 312 311
300 300 301 301 302 302 303 303 302 303 304 305 305 305 307 307 308 310 306 305 308 309
297 297 296 297 298 299 301 301 302 302 301 301 301 302 303 305 304 301 300 300 300 302
295 295 294 294 294 294 295 297 297 298 299 299 300 300 302 303 302 302 300 299 299 300
Wind_Speed
16 11 10 11 11 12 14 10 17 22 22 20 18 15 14 11 11 10 10 12 7 5
12 13 10 13 15 15 16 10 6 16 16 16 16 16 16 11 12 11 10 10 10 7
10 11 12 13 18 17 13 16 19 12 14 15 15 16 15 12 12 13 9 8 9 6
12 10 9 4 4 6 10 13 15 15 14 14 16 16 14 12 13 14 11 7 9 9
7 8 8 8 3 4 8 9 13 13 14 13 13 13 14 12 12 14 13 12 10 10
8 8 12 13 10 9 8 11 13 14 14 12 12 11 11 13 13 13 12 11 11 9
2 6 9 15 12 12 11 11 12 12 13 14 13 14 14 13 12 10 9 9 10 10
5 9 9 8 11 12 13 11 11 10 9 10 12 10 14 11 11 11 9 9 10 11
9 12 12 12 9 9 11 9 8 8 9 9 6 12 14 13 10 10 11 10 10 9
14 14 14 13 13 13 8 8 6 6 6 6 5 12 13 14 9 10 12 12 11 8
14 15 14 15 14 13 10 11 7 6 6 3 3 7 10 13 9 8 10 10 11 11
14 14 14 14 13 11 10 11 10 7 8 7 4 3 7 4 1 6 6 4 7 11
12 12 11 9 10 8 7 8 6 6 6 7 6 11 11 8 1 6 3 6 7 9
12 12 11 10 8 8 8 7 7 7 6 6 7 8 10 9 4 3 2 3 5 6
Wind_Direction
223 216 218 220 233 220 210 206 203 190 185 179 181 178 177 179 177 177 181 184 180 180
222 218 219 223 238 229 192 176 166 170 166 172 173 176 174 176 176 177 177 187 190 189
211 217 235 229 214 199 175 161 162 181 175 170 172 180 176 178 176 174 183 185 186 179
200 210 247 287 182 160 141 157 164 166 169 170 176 179 176 177 175 180 177 176 183 193
200 220 225 231 188 176 170 153 158 163 166 169 178 181 172 176 175 184 180 188 186 188
194 238 224 200 191 173 180 172 172 166 167 165 171 174 181 177 186 182 192 184 184 179
344 295 208 185 176 174 176 171 165 169 166 168 173 175 178 183 185 178 174 175 182 179
356 11 56 144 158 163 159 163 159 155 164 165 169 173 174 177 174 175 176 182 190 192
26 43 40 52 65 137 139 139 138 143 151 159 174 173 172 168 177 184 187 193 198 195
38 37 31 36 44 47 68 98 104 128 149 178 170 178 179 179 188 192 197 199 199 191
34 48 44 40 36 38 27 49 38 57 43 113 98 183 206 205 203 195 207 197 196 195
32 36 36 37 31 27 36 40 38 28 18 7 21 76 131 121 234 209 170 175 201 193
37 39 42 40 35 29 38 40 38 38 22 33 20 22 2 348 184 166 181 158 158 182
35 34 23 24 32 34 31 28 25 17 8 13 18 0 350 341 346 334 276 206 188 199